Lapse_Rate
0.2 -0.5 -0.8 -0.0 0.3 0.2 -0.2 -0.4 -0.3 -1.0 -2.0 -1.6 -1.3 -0.5 0.8 0.8 1.5 0.5 0.1 -0.2 0.1 0.4 0.3 0.3 0.7 1.0 1.3 1.5 1.7 1.0 1.6 1.5 1.9 2.2 3.1 3.0 2.9 2.1 1.6 1.6 1.5 1.2 0.0
-0.9 -1.3 -1.4 1.2 1.9 0.6 0.4 0.0 -0.5 -2.1 -1.7 -1.3 -0.9 0.2 0.6 0.2 -0.2 -0.2 -0.3 -0.2 0.5 0.6 0.4 0.1 -0.0 0.9 1.2 1.3 1.7 1.9 1.4 1.2 1.0 2.9 3.3 5.2 4.5 2.8 2.1 0.9 0.5 0.1 0.1
-1.3 -2.6 -2.2 -0.9 0.5 1.3 1.1 0.2 -1.4 -2.1 -1.4 -0.6 -1.5 -0.8 -0.7 0.5 0.9 0.4 -0.3 -0.3 0.6 0.8 0.6 0.4 -0.1 -0.1 -0.1 0.7 1.1 1.6 2.4 2.5 1.1 1.7 3.0 5.0 5.0 4.0 3.7 1.8 0.7 0.3 -0.2
0.9 -0.2 -0.1 0.5 1.1 1.3 1.8 2.0 1.9 1.8 2.2 2.0 1.9 2.0 1.4 1.1 0.7 0.0 0.3 -0.0 0.7 1.0 1.2 1.1 0.7 0.5 0.4 0.6 0.5 0.9 1.4 1.9 2.6 1.7 1.1 0.9 2.1 3.8 4.7 3.1 1.9 1.5 0.7
0.8 0.2 0.6 1.2 1.2 1.0 1.8 2.6 3.3 3.6 2.6 1.9 1.8 1.4 0.5 0.1 0.1 -0.2 -0.0 -0.0 0.1 1.0 1.4 1.4 1.1 0.5 0.2 0.3 1.0 0.8 0.7 1.1 2.0 1.8 1.3 1.0 1.4 1.0 1.4 4.1 2.1 1.7 1.1
1.2 0.6 0.4 0.9 1.2 1.8 2.2 2.7 3.6 2.4 1.9 1.5 1.4 1.1 1.3 0.8 0.0 -0.5 -0.6 -0.6 -0.1 -0.0 0.8 1.0 0.8 0.6 0.3 0.4 0.2 0.4 0.9 0.5 0.4 0.8 1.1 1.7 2.9 2.1 1.0 0.9 2.5 2.2 2.0
1.3 0.9 0.7 0.8 1.2 1.8 2.2 2.4 2.4 1.8 1.7 1.1 0.3 -0.2 0.7 0.5 1.0 0.8 0.5 0.4 0.2 0.1 0.4 0.2 0.1 0.0 0.6 0.2 0.1 -0.0 0.1 0.5 0.6 0.6 0.4 0.1 0.5 0.5 0.5 0.5 0.4 2.9 2.5
1.5 1.0 0.4 0.1 0.4 0.5 0.2 0.3 0.1 0.3 -0.1 0.1 0.5 -0.1 0.9 1.1 1.3 1.3 0.3 0.6 0.5 0.5 0.5 0.1 0.3 0.6 0.4 -0.0 -0.2 -0.8 -0.8 -0.3 -0.3 -0.0 0.1 -0.5 -0.8 -0.4 -0.0 0.6 0.2 2.6 3.9
2.6 2.6 1.5 0.2 -0.2 -0.4 -0.5 -0.6 -0.3 0.6 1.0 1.2 0.6 0.4 0.1 0.1 0.7 0.5 0.4 0.6 0.7 1.0 0.3 0.5 0.3 0.1 -0.1 -0.0 -0.4 -0.6 -0.3 -0.2 -0.1 -0.2 -0.3 -0.6 -1.2 -1.3 -1.1 -0.5 0.4 1.1 2.7
2.4 1.8 1.4 1.2 0.9 0.6 0.1 -0.6 -0.4 0.5 0.6 0.5 -0.1 0.1 0.2 0.3 0.5 0.4 0.6 0.6 0.6 1.0 0.6 0.7 0.8 0.4 0.2 0.1 0.3 0.4 0.4 0.3 -0.2 -0.2 -0.1 -0.3 -0.9 -1.2 -1.2 -1.0 -0.7 0.4 0.8
2.5 1.8 1.3 0.9 0.2 -0.0 -0.2 -0.4 -0.5 0.4 0.2 -0.1 0.4 0.8 0.9 1.0 0.6 0.4 0.5 0.6 0.9 0.6 0.8 0.9 0.7 0.7 0.9 0.8 0.7 0.7 1.0 1.2 1.6 1.6 1.0 0.3 0.2 -0.5 -0.8 -0.8 -0.7 -0.5 -0.2
3.8 2.2 1.2 1.2 0.6 -0.1 -0.1 -0.1 -0.2 0.2 0.6 0.1 0.4 1.3 1.0 0.9 0.9 0.7 0.9 0.7 0.9 1.1 1.1 0.8 0.8 1.0 1.3 1.2 2.2 2.3 2.0 1.9 2.1 2.2 2.0 1.7 1.8 0.8 0.2 0.3 -0.2 -0.2 -0.0
2.1 1.6 0.7 0.5 0.7 0.1 0.1 0.5 0.4 0.5 0.5 -0.1 -0.2 0.2 0.7 1.0 1.1 0.9 0.8 0.9 1.2 1.3 1.5 1.7 1.4 1.4 1.5 1.8 2.3 2.1 2.1 1.9 1.3 1.3 1.3 1.2 1.5 0.9 1.0 1.4 1.7 0.9 0.6
3.2 2.1 0.7 0.2 0.1 0.4 0.8 0.7 0.2 -0.3 -0.8 -1.0 -0.8 -0.1 0.0 0.4 0.2 0.1 0.2 0.8 1.4 1.5 1.7 1.8 1.6 2.1 2.0 1.9 2.1 1.9 1.5 1.3 2.2 1.0 0.7 0.8 1.1 1.5 2.0 3.7 3.3 1.3 0.7
3.8 2.8 2.9 0.7 -0.0 0.7 1.3 0.9 0.4 -0.1 -1.4 -0.9 -0.6 -0.4 -0.6 -0.4 -0.3 -0.0 0.1 0.5 1.0 1.4 1.6 2.0 1.8 2.0 1.9 2.1 1.0 1.4 1.3 1.4 1.8 1.4 1.3 0.6 0.7 0.8 1.6 4.0 4.0 2.7 1.4
2.1 1.5 0.7 -0.1 -0.3 1.5 1.4 0.7 0.7 -0.3 -1.0 -0.4 -0.2 -0.5 -0.4 -0.4 -0.9 -0.8 -1.0 -0.7 -0.1 0.4 0.8 1.1 1.6 1.6 1.5 1.7 1.5 1.5 1.2 1.8 2.5 2.2 2.0 1.9 1.9 1.5 2.9 4.7 3.5 3.0 2.3
2.2 2.2 1.9 1.9 1.2 0.2 -0.1 0.1 -0.7 -1.3 -0.9 -0.1 0.4 0.2 -0.3 -0.3 -0.6 -1.0 -1.4 -1.2 -0.6 0.2 0.2 0.7 0.8 0.9 1.0 2.4 2.1 1.5 1.6 2.3 2.7 2.8 2.8 2.3 1.6 2.2 2.8 2.8 2.1 2.4 2.2
4.1 3.3 2.0 1.1 -0.4 -0.8 -1.1 -1.5 -1.4 -1.5 -1.9 -1.5 -1.8 -2.2 -1.7 -0.7 -0.1 1.9 0.8 0.6 0.7 0.6 0.9 1.0 1.4 1.7 2.3 2.6 2.3 1.9 1.9 2.6 2.6 2.3 2.0 1.4 1.9 2.2 2.2 1.4 0.8 0.7 1.0
2.8 1.8 1.0 0.3 0.0 -1.0 -1.3 -0.8 -1.9 -1.6 -1.3 -1.2 -1.5 -1.4 1.0 1.7 2.1 2.5 2.4 1.9 1.3 1.1 1.3 1.8 2.3 2.9 2.9 3.4 3.2 2.6 2.6 2.5 2.3 2.2 2.0 2.0 2.6 2.3 2.4 1.2 1.1 1.4 0.8
1.7 1.6 0.8 -0.3 -0.3 -0.9 -0.5 -1.0 -1.4 -1.2 -0.8 -0.8 -0.2 1.7 2.0 2.2 2.9 2.7 2.9 1.8 1.6 1.4 1.9 2.0 2.5 3.7 3.9 4.3 4.1 3.0 2.7 2.4 2.8 3.4 3.8 3.7 2.5 3.3 2.1 1.3 1.6 0.3 -0.8
1.7 1.3 0.7 0.2 -0.7 -1.0 -1.4 -1.0 -0.5 -0.3 -1.0 -0.5 0.2 2.0 2.4 2.4 2.9 2.8 1.9 1.1 1.6 2.4 1.6 1.1 1.1 2.4 4.3 4.6 4.5 3.9 3.0 2.9 3.3 3.8 4.3 4.1 3.9 2.8 2.4 2.1 1.7 0.4 -1.0
1.1 1.1 0.4 -0.0 -0.3 -0.6 -0.4 -0.2 -0.1 -0.8 -0.6 0.3 1.0 2.5 2.8 2.9 2.7 2.2 2.1 1.9 2.3 0.9 -0.8 0.9 1.7 1.8 4.0 5.1 5.0 4.6 3.8 3.7 3.4 3.3 3.6 4.2 5.2 4.3 3.7 2.5 2.9 1.5 -0.6
-0.1 -0.2 0.1 0.4 0.3 -0.1 -0.0 1.7 1.0 0.0 0.3 0.9 1.4 1.8 1.7 2.0 2.8 2.1 1.3 1.6 1.0 0.4 1.9 2.0 1.6 2.0 4.3 4.9 5.2 5.0 4.5 3.8 2.9 3.3 4.7 6.0 5.4 4.6 4.3 3.8 2.6 0.3 0.3
0.9 0.7 -0.5 -0.4 0.2 0.6 1.1 2.7 0.9 0.8 1.3 1.9 1.8 1.9 2.2 2.7 3.1 2.7 2.3 1.5 1.2 2.2 3.3 3.0 2.8 3.2 4.3 4.9 4.5 4.3 3.3 3.2 3.2 4.0 3.5 3.0 1.9 1.7 2.3 3.2 1.6 0.9 1.2
0.5 0.1 0.0 0.2 0.9 0.8 1.4 1.2 1.4 1.4 2.7 3.1 3.1 3.3 3.4 2.8 2.6 1.9 2.3 2.9 2.3 3.5 3.6 3.6 3.7 3.9 4.2 4.5 4.5 3.3 3.0 2.9 2.2 1.4 1.9 2.8 2.5 2.1 1.4 0.6 0.3 0.0 1.1
1.1 0.2 0.4 0.6 0.6 0.8 0.8 2.0 2.1 2.3 2.8 2.6 2.5 2.8 2.8 2.0 2.3 2.5 3.3 4.4 4.4 5.0 4.9 4.6 4.3 4.3 4.9 5.6 5.6 4.8 4.7 4.2 3.4 2.5 2.1 1.0 1.7 2.3 2.3 2.2 1.2 1.0 2.0
Wind_Speed
10 8 8 7 7 9 12 13 13 11 9 5 4 4 2 1 1 5 7 7 6 5 5 3 3 2 1 1 2 2 4 2 3 5 7 7 8 9 7 12 12 14 13
14 14 9 2 4 7 10 10 11 12 10 10 5 3 3 3 2 2 5 7 4 3 3 3 2 2 1 1 1 2 2 2 3 3 3 3 3 6 7 7 8 10 11
9 10 11 11 10 8 6 8 12 12 8 7 9 5 4 3 1 1 1 1 1 1 3 3 4 4 3 2 1 2 2 2 1 4 2 3 3 4 4 6 6 7 7
6 6 7 11 11 11 10 9 9 10 7 7 6 4 3 3 1 2 1 1 0 0 1 3 4 3 2 2 3 3 3 3 4 0 2 2 3 3 3 3 5 5 6
5 6 6 8 10 10 11 10 7 5 3 5 4 4 4 4 3 3 5 3 2 2 2 3 3 3 3 3 3 3 4 3 3 3 2 2 3 3 3 4 3 4 4
6 5 6 6 6 5 8 10 10 7 6 4 5 6 6 4 4 4 4 4 2 2 3 4 3 3 3 3 3 2 2 4 4 3 3 3 3 3 3 3 3 5 3
4 4 6 5 4 5 5 4 5 5 7 9 10 10 9 9 8 6 4 4 3 3 5 5 5 3 4 4 3 3 3 2 2 4 3 2 3 3 3 3 3 3 2
1 3 5 6 7 7 8 7 7 7 7 4 5 3 2 2 4 5 4 4 4 3 4 5 5 5 8 6 4 2 3 3 3 4 3 2 2 2 3 4 6 3 3
3 1 3 4 6 6 7 8 7 5 3 5 5 6 5 6 6 6 4 4 4 3 5 7 5 6 5 5 5 3 4 4 3 4 4 3 2 2 2 3 4 7 5
6 7 7 6 4 5 5 5 4 7 7 7 5 5 6 6 4 4 6 5 4 6 5 6 6 6 5 5 4 3 3 4 3 3 4 3 2 3 3 3 3 3 4
3 6 7 6 7 6 4 5 6 7 5 3 2 3 2 3 3 5 5 6 4 6 7 7 6 6 6 6 5 5 5 5 3 2 4 5 3 2 2 2 3 4 3
5 5 8 7 7 7 5 6 6 6 2 1 1 2 1 1 4 5 6 5 6 5 5 5 6 6 5 5 4 4 5 6 5 4 4 4 4 4 3 2 3 3 3
8 8 7 8 8 7 6 5 3 1 2 2 3 3 2 1 3 4 4 4 4 4 5 6 7 7 7 6 5 6 6 6 6 5 5 5 4 3 1 1 3 3 5
10 9 7 7 8 7 4 3 5 4 2 3 4 3 3 3 3 3 2 3 4 5 6 5 5 5 7 7 7 8 7 7 6 5 6 5 4 3 2 3 4 5 6
9 9 10 7 5 3 2 1 2 2 3 5 4 3 3 3 2 1 1 3 5 5 5 5 5 6 7 6 10 8 8 7 6 5 5 4 6 5 4 3 0 5 4
9 9 9 5 6 4 2 4 2 3 6 6 6 5 5 4 3 3 3 4 4 5 5 6 7 7 5 15 14 12 8 7 7 7 7 8 10 9 6 5 4 2 6
7 6 5 5 6 7 6 5 4 5 6 6 6 6 5 3 2 3 5 5 4 5 6 6 7 6 6 14 14 15 7 8 7 8 7 6 6 8 8 12 12 14 14
1 3 3 4 4 3 4 4 6 5 5 5 4 4 4 3 3 3 4 4 3 5 5 6 7 7 6 14 15 15 7 7 7 7 6 6 5 3 4 6 8 8 8
1 1 1 1 1 5 5 5 5 5 4 4 4 3 1 3 2 2 3 3 4 4 3 4 7 7 7 15 16 12 7 8 7 7 7 6 5 7 8 8 9 8 7
4 3 4 3 2 3 3 3 3 2 2 1 1 1 2 3 2 3 4 2 3 4 4 5 4 8 7 14 14 11 6 7 6 5 5 10 4 9 11 7 7 8 5
5 2 3 3 3 4 5 3 2 2 1 1 2 3 3 3 4 3 2 4 5 5 4 5 4 5 6 9 13 15 6 6 5 5 4 4 10 10 11 10 5 7 7
4 4 4 4 4 4 4 2 1 3 3 3 3 3 4 3 3 5 4 5 5 5 4 5 4 3 5 8 10 12 11 11 6 5 4 5 12 11 12 10 16 16 9
4 4 5 6 4 4 4 3 2 4 3 3 3 3 3 4 5 5 5 4 4 3 4 4 3 2 3 4 12 11 14 12 4 3 9 15 14 14 11 16 15 9 4
7 7 6 6 6 4 4 3 4 5 4 3 3 3 4 4 5 4 4 4 3 4 4 4 3 3 3 5 5 5 5 8 5 8 6 10 11 9 4 10 8 5 3
5 5 6 6 6 5 4 3 4 5 4 4 4 4 3 4 4 3 3 4 1 4 5 4 5 4 3 4 9 8 5 4 6 7 4 5 3 4 5 4 4 2 3
4 5 6 6 6 5 4 4 4 4 5 4 4 3 4 3 3 4 4 5 7 7 7 10 7 3 7 9 14 13 14 15 13 3 4 2 3 4 4 5 3 2 3
Wind_Direction
314 319 286 212 163 148 143 146 128 121 113 81 74 56 31 344 331 19 55 66 56 52 72 73 69 70 111 147 130 98 109 80 144 101 84 61 66 69 62 71 83 83 80
339 336 346 51 138 141 132 124 131 130 130 130 130 117 131 85 78 45 59 64 70 90 113 117 100 113 95 90 155 99 113 113 224 133 127 148 97 57 61 69 77 68 77
344 4 35 47 52 50 83 126 125 119 110 95 101 99 107 82 57 14 47 58 90 75 134 146 161 163 145 174 181 174 155 154 235 276 145 150 169 125 58 63 78 83 77
353 24 56 76 80 73 61 73 89 100 121 138 118 128 139 133 235 248 294 253 222 79 167 170 173 173 157 171 177 170 180 152 182 178 13 17 126 152 150 85 76 90 88
34 56 67 100 109 112 115 113 115 127 146 143 142 142 152 155 159 208 198 209 212 198 191 191 175 170 169 161 190 174 191 182 171 167 148 95 55 86 137 151 143 87 80
26 56 72 86 93 108 130 141 145 147 148 149 169 175 178 171 178 198 204 210 191 209 197 171 177 181 182 179 163 157 214 194 167 165 175 173 170 171 146 123 143 134 116
33 84 100 99 106 116 114 91 126 153 184 188 189 181 192 187 206 198 205 198 193 208 216 186 177 173 187 163 147 137 127 191 192 172 183 182 168 149 129 113 132 143 144
343 120 151 159 168 173 172 166 178 191 201 228 245 196 197 216 206 202 192 200 210 198 182 203 197 201 173 160 150 117 125 130 130 135 135 123 139 160 157 146 146 129 145
301 205 175 186 191 189 189 187 191 210 194 219 224 218 192 195 213 211 192 195 201 207 186 193 190 190 182 163 157 149 149 140 138 131 129 117 101 81 133 142 149 142 153
327 352 342 319 282 234 223 202 182 215 217 217 212 212 210 213 211 176 217 217 210 206 182 190 177 171 171 169 154 142 136 128 138 131 116 102 100 99 93 118 119 121 129
333 305 305 297 285 296 255 225 226 231 235 226 213 223 235 208 183 209 227 222 200 197 196 187 180 183 173 166 152 144 141 135 129 106 118 110 99 91 97 99 112 127 119
246 258 259 269 273 275 267 224 222 231 266 349 328 310 7 177 214 229 240 220 221 197 196 175 173 164 155 146 152 150 142 135 123 113 102 99 100 70 48 41 87 114 112
279 252 249 252 252 239 247 250 243 278 11 35 43 30 10 331 264 259 255 226 216 204 184 173 174 166 160 149 132 118 106 93 94 93 90 80 83 83 12 12 153 122 112
272 285 251 235 252 243 236 324 348 357 34 48 44 3 348 311 291 274 235 223 197 186 184 176 164 148 135 126 118 114 105 90 90 88 94 81 73 57 11 267 208 127 112
262 269 276 266 225 184 198 80 53 327 46 41 24 351 334 329 356 18 150 157 177 165 147 129 113 125 124 133 126 119 110 118 94 66 67 80 93 76 296 262 249 129 115
279 284 277 221 180 160 102 39 351 17 35 25 4 355 10 22 36 54 64 83 91 90 100 107 120 121 111 127 127 126 126 120 117 109 83 65 65 74 69 40 60 105 142
306 328 9 36 53 49 30 35 27 33 31 13 352 354 2 17 65 112 105 103 97 102 94 97 104 96 114 133 134 129 121 125 123 124 119 108 79 75 78 72 69 63 65
355 17 33 57 58 65 49 34 26 28 21 16 8 11 22 38 41 58 87 109 102 111 117 112 111 121 133 141 135 121 117 116 117 122 112 106 109 96 124 107 81 64 64
199 197 111 87 73 69 58 52 35 20 18 13 355 346 72 81 65 105 111 99 112 114 115 120 123 125 143 149 143 125 122 116 114 113 117 126 143 167 150 117 103 101 77
202 207 163 140 94 81 66 86 91 64 34 36 114 126 118 122 145 146 143 97 93 98 109 103 117 147 146 158 149 124 120 117 118 112 131 125 144 142 136 123 128 109 90
231 205 177 205 193 161 119 78 76 82 154 122 137 143 140 140 147 130 86 102 105 107 89 93 82 94 128 145 146 137 133 134 130 132 137 147 150 139 128 121 120 123 116
241 266 254 231 193 163 146 153 182 146 144 160 166 164 156 138 125 115 113 112 113 102 87 98 82 75 101 128 147 147 137 144 145 149 142 137 137 142 136 128 127 124 111
244 278 255 251 228 181 160 183 180 152 163 172 158 153 128 124 118 125 123 113 106 107 122 114 101 83 117 115 132 136 136 136 120 140 148 140 137 133 134 127 122 108 106
220 234 237 244 228 190 184 202 154 153 163 170 146 129 129 123 120 126 135 130 125 140 138 133 120 113 114 116 103 97 104 120 134 146 114 112 102 94 77 116 103 106 114
208 215 215 221 214 175 180 168 166 163 165 156 146 153 162 144 127 130 151 136 146 156 151 155 145 144 137 142 146 143 143 141 133 113 91 105 98 97 94 86 99 112 125
199 220 210 195 183 167 161 183 174 166 151 159 161 157 140 137 137 129 117 140 148 156 156 149 142 124 133 152 152 155 157 149 138 94 123 103 113 121 126 132 126 112 135